#timestamp,LO_Frequency,Hit,StdDev 
1566532815.2,286046998.1,N
1566532835.0,286046999.9,N
1566532835.9,286046999.9,N
1566532855.8,286046998.2,N
1566532875.6,286046998.8,N
1566532895.5,286046997.0,N
1566532915.3,286046996.9,N
1566532935.1,286046998.5,N
1566532955.9,286046998.7,N
1566532975.7,286047000.8,N
1566532995.5,286047000.2,N
1566533015.4,286047001.1,N
1566533035.2,286047000.2,N
1566533055.1,286046996.8,N
1566533056.0,286046996.8,N
1566533075.8,286046999.4,N
1566533095.6,286047000.7,N
1566533115.5,286047000.6,N
1566533135.3,286047001.2,N
1566533155.2,286046999.1,N
1566533175.9,286047000.7,N
1566533195.7,286047001.1,N
1566533215.6,286047000.9,N
1566533235.4,286047000.7,N
1566533255.2,286047000.5,N
1566533275.1,286047000.7,N
1566533276.0,286047000.7,N
1566533295.8,286047000.5,N
1566533315.7,286046996.5,N
1566533335.5,286046998.7,N
1566533355.3,286047000.1,N
1566533375.2,286047002.7,N
1566533395.0,286047002.7,N
1566533395.9,286047002.7,N
1566533415.7,286047000.2,N
1566533435.6,286047002.7,N
1566533455.4,286047001.9,N
1566533475.3,286047001.8,N
1566533495.1,286047003.0,N
1566533496.0,286047003.0,N
1566533515.8,286047003.0,N
1566533535.7,286047003.9,N
1566533555.5,286047001.5,N
1566533575.3,286047001.7,N
1566533595.2,286047002.8,N
1566533615.0,286046999.9,N
1566533615.9,286046999.9,N
1566533635.8,286047002.2,N
1566533655.6,286046999.9,N
1566533675.4,286046999.8,N
1566533695.3,286046999.8,N
1566533715.1,286047001.1,N
1566533735.9,286047000.8,N
1566533755.7,286047002.3,N
1566533775.5,286047001.9,N
1566533795.4,286047000.2,N
1566533815.2,286047000.4,N
1566533835.0,286047000.4,N
1566533835.9,286047000.4,N
1566533855.8,286047002.6,N
1566533875.6,286047000.1,N
1566533895.5,286047001.9,N
1566533915.3,286047001.5,N
1566533935.1,286047001.8,N
1566533955.9,286047002.3,N
1566533975.7,286047002.2,N
1566533995.5,286046998.3,N
1566534015.4,286047001.1,N
1566534035.2,286047002.6,N
1566534055.1,286047001.8,N
1566534056.0,286047001.8,N
1566534075.8,286047005.5,Y
1566534095.6,286047003.6,P
1566534115.5,286047004.1,P
1566534135.3,286047003.6,N
1566534155.1,286047002.0,N
1566534175.9,286047001.7,N
1566534195.7,286047003.3,N
1566534215.6,286047002.6,N
1566534235.4,286047002.3,N
1566534255.2,286047000.1,N
1566534275.1,286047000.9,N
1566534276.0,286047000.9,N
1566534295.8,286046999.9,N
1566534315.6,286047000.8,N
1566534335.5,286047000.9,N
1566534355.3,286047000.2,N
1566534375.2,286047002.2,N
1566534395.9,286047000.0,N
1566534415.7,286046998.5,N
1566534435.6,286047001.1,N
1566534455.4,286047000.9,N
1566534475.2,286047000.9,N
1566534495.1,286047001.0,N
1566534496.0,286047001.0,N
1566534515.8,286047001.0,N
1566534535.7,286046998.4,N
1566534555.5,286047000.9,N
1566534575.3,286047001.0,N
1566534595.2,286047002.4,N
1566534615.0,286047000.8,N
1566534615.9,286047000.8,N
1566534635.7,286047001.2,N
1566534655.6,286046998.6,N
1566534675.4,286047002.7,N
1566534695.3,286047002.4,N
1566534715.1,286047000.0,N
1566534716.0,286047000.0,N
1566534735.8,286047002.8,N
1566534755.7,286047002.3,N
1566534775.5,286046999.8,N
1566534795.3,286047002.7,N
1566534815.2,286047001.2,N
1566534835.0,286046998.2,N
1566534835.9,286046998.2,N
1566534855.8,286046998.4,N
1566534875.6,286047000.2,N
1566534895.4,286047000.8,N
1566534915.3,286047002.6,N
1566534935.1,286046998.3,N
1566534955.9,286047000.7,N
1566534975.7,286047000.1,N
1566534995.5,286047002.4,N
1566535015.4,286047002.5,N
1566535035.2,286047002.3,N
1566535055.0,286047002.7,N
1566535055.9,286047002.7,N
1566535075.8,286046999.8,N
1566535095.6,286047000.1,N
1566535115.5,286046999.9,N
1566535135.3,286047002.5,N
1566535155.1,286047004.3,N
1566535175.9,286047004.7,N
1566535195.7,286047002.9,N
1566535215.5,286047001.5,N
1566535235.4,286047001.5,N
1566535255.2,286046999.9,N
1566535275.1,286047000.2,N
1566535276.0,286047000.2,N
1566535295.8,286047001.8,N
1566535315.6,286046999.7,N
1566535335.5,286047004.2,N
1566535355.3,286047004.3,N
1566535375.1,286047004.4,N
1566535395.9,286047003.8,N
1566535415.7,286047005.9,Y
1566535435.6,286047003.8,P
1566535455.4,286047003.9,P
1566535475.2,286047002.5,N
1566535495.1,286047001.6,N
1566535496.0,286047001.6,N
1566535515.8,286047002.7,N
1566535535.7,286047004.1,Y
1566535555.5,286047000.4,P
1566535575.3,286047000.5,N
1566535595.2,286047000.0,N
1566535615.9,286047000.1,N
1566535635.7,286047001.9,N
1566535655.6,286047002.6,N
1566535675.4,286047001.9,N
1566535695.3,286047004.2,Y
1566535715.1,286047002.3,P
1566535716.0,286047002.3,P
1566535735.8,286047002.6,P
1566535755.7,286047001.2,N
1566535775.5,286047001.2,N
1566535795.3,286047001.2,N
1566535815.2,286047000.7,N
1566535835.0,286047001.0,N
1566535835.9,286047001.0,N
1566535855.8,286047001.1,N
1566535875.6,286046998.7,N
1566535895.4,286046996.9,Y
1566535915.3,286046995.7,P
1566535935.1,286046996.7,N
1566535955.8,286046997.5,N
1566535975.7,286046996.7,N
1566535995.5,286046996.7,N
1566536015.4,286046995.5,N
1566536035.2,286046999.1,N
1566536055.0,286047000.6,N
1566536055.9,286047000.6,N
1566536075.8,286047000.0,N
1566536095.6,286046998.3,N
1566536115.4,286047000.0,N
1566536135.3,286046999.0,N
1566536155.1,286046999.5,N
1566536175.9,286046998.7,N
1566536195.7,286046998.9,N
1566536215.5,286046998.2,N
1566536235.4,286047001.1,N
1566536255.2,286046998.6,N
1566536275.0,286046998.6,N
1566536275.9,286046998.6,N
1566536295.8,286046998.6,N
1566536315.6,286046999.0,N
1566536335.5,286046998.4,N
1566536355.3,286046998.8,N
1566536375.1,286046999.3,N
1566536395.9,286046998.5,N
